Location: Igon
(43.1667°N, 0.2333°W)
Time: 04:15:08
(UTC+00:00)

RESURS DK-1 - Pass Details

Date: 29 November 2020
Orbit: 557 x 560 km, 69.9° (Epoch: 27 January)

Event Time Altitude Azimuth Distance (km) Brightness Sun altitude
Exits shadow 06:03:06 - 235° (SW) 2,306 5.1 -12.2°
Reaches altitude 10° 06:04:23 10° 242° (WSW) 1,846 4.6 -11.9°
Maximum altitude 06:08:01 29° 304° (NW) 1,036 3.2 -11.3°
Drops below altitude 10° 06:11:41 10° 6° (N) 1,858 4.9 -10.7°
Sets 06:14:07 0° 18° (NNE) 2,758 5.9 -10.3°
